No particular awareness of the weather is required.    There are no Weather-warnings


Meteo18 Weather Cam more information Meteo18 Weather Cam


Thunder radar more information blitzortung!


Rain radar more information rain snow radar


Visit our other weather sites:

Template documentation
and downloads

And another site



Weather Underground History page Text

Daily Summary for August 13, 2017 Units:  English    Metric   Both
« Previous Day
Next Day »
Daily Weekly Monthly Yearly Custom
  High: Low: Average:
Temperature: 74.1 °F 59.9 °F 65.7 °F
Dew Point: 60.8 °F 55.6 °F 58.6 °F
Humidity: 96 % 56 % 79 %
Wind Speed: 7 mph 0 mph 1.7 mph
Wind Gust: 10 mph - -
Wind:- - SSW
Pressure: 30.2 in 30.2 in -
Precipitation: 0.02 in    
Historical Graphs
 
 
Tabular Data for August 13, 2017
Time Temperature Dew Point Pressure Wind Wind Speed Wind Gust Humidity Rainfall Rate (Hourly)
00:02 64.9 °F 58.6 °F 30.2 in SW 2 mph 4 mph 80 % 0 in
00:12 64.8 °F 58.8 °F 30.2 in SSW 2 mph 4 mph 81 % 0 in
00:17 64.8 °F 58.8 °F 30.2 in SW 3 mph 4 mph 81 % 0 in
00:22 64.8 °F 58.8 °F 30.2 in SW 3 mph 4 mph 81 % 0 in
00:27 64.8 °F 58.8 °F 30.2 in SW 2 mph 5 mph 81 % 0 in
00:32 64.6 °F 58.6 °F 30.2 in SSW 1 mph 5 mph 81 % 0 in
00:37 64.6 °F 59 °F 30.2 in SW 2 mph 6 mph 82 % 0 in
00:42 64.6 °F 59 °F 30.2 in SSW 2 mph 6 mph 82 % 0 in
00:47 64.6 °F 59 °F 30.2 in SW 1 mph 6 mph 82 % 0 in
00:52 64.4 °F 58.8 °F 30.2 in SW 1 mph 4 mph 82 % 0 in
00:57 64.4 °F 58.8 °F 30.2 in WSW 2 mph 4 mph 82 % 0 in
01:02 64.4 °F 58.8 °F 30.2 in WSW 2 mph 3 mph 82 % 0 in
01:07 64.4 °F 58.8 °F 30.2 in SW 2 mph 3 mph 82 % 0 in
01:12 64.4 °F 58.8 °F 30.2 in Calm   3 mph 82 % 0 in
01:17 64.2 °F 58.6 °F 30.2 in SSW 1 mph 3 mph 82 % 0 in
01:22 64.2 °F 59 °F 30.2 in SW 1 mph 3 mph 83 % 0 in
01:32 64 °F 59.2 °F 30.2 in Calm   2 mph 84 % 0 in
01:37 64 °F 59.2 °F 30.2 in Calm   2 mph 84 % 0 in
01:42 64 °F 59.2 °F 30.2 in Calm   4 mph 84 % 0 in
01:52 64.2 °F 59.4 °F 30.2 in West 2 mph 5 mph 84 % 0 in
02:02 64.2 °F 59.5 °F 30.2 in West 2 mph 5 mph 85 % 0 in
02:07 64.2 °F 59.5 °F 30.2 in WSW 1 mph 4 mph 85 % 0 in
02:12 64.2 °F 59.5 °F 30.2 in Calm   4 mph 85 % 0 in
02:17 64 °F 59.4 °F 30.2 in West 1 mph 4 mph 85 % 0 in
02:22 64 °F 59.7 °F 30.2 in Calm   3 mph 86 % 0 in
02:27 64 °F 59.7 °F 30.2 in Calm   2 mph 86 % 0 in
02:32 63.9 °F 59.5 °F 30.2 in Calm   2 mph 86 % 0 in
02:37 63.9 °F 59.5 °F 30.2 in Calm   2 mph 86 % 0 in
02:42 63.9 °F 59.5 °F 30.2 in SW 2 mph 2 mph 86 % 0 in
02:47 63.9 °F 59.5 °F 30.2 in SW 1 mph 4 mph 86 % 0 in
02:52 63.9 °F 59.9 °F 30.2 in SW 2 mph 4 mph 87 % 0 in
02:57 63.7 °F 59.7 °F 30.2 in SW 4 mph 4 mph 87 % 0 in
03:02 63.9 °F 59.9 °F 30.2 in SW 2 mph 4 mph 87 % 0 in
03:12 63.9 °F 59.9 °F 30.2 in West 4 mph 5 mph 87 % 0 in
03:17 64 °F 59.7 °F 30.2 in West 4 mph 6 mph 86 % 0 in
03:22 64 °F 59.7 °F 30.2 in WSW 2 mph 6 mph 86 % 0 in
03:32 63.9 °F 59.9 °F 30.2 in West 1 mph 5 mph 87 % 0 in
03:37 63.9 °F 59.9 °F 30.2 in WSW 4 mph 5 mph 87 % 0 in
03:42 63.7 °F 59.7 °F 30.2 in SW 2 mph 5 mph 87 % 0 in
03:47 63.7 °F 59.7 °F 30.2 in WSW 2 mph 5 mph 87 % 0 in
03:52 63.5 °F 59.5 °F 30.2 in SSW 1 mph 4 mph 87 % 0 in
03:57 63.3 °F 59.4 °F 30.2 in SW 3 mph 4 mph 87 % 0 in
04:02 63.1 °F 59.5 °F 30.2 in SW 4 mph 4 mph 88 % 0 in
04:07 63 °F 59.4 °F 30.2 in SW 3 mph 5 mph 88 % 0 in
04:12 63 °F 59.4 °F 30.2 in SSW 2 mph 5 mph 88 % 0 in
04:17 63.1 °F 59.5 °F 30.2 in SW 2 mph 6 mph 88 % 0 in
04:22 63.1 °F 59.5 °F 30.2 in SW 1 mph 6 mph 88 % 0 in
04:27 63.1 °F 59.5 °F 30.2 in SSW 1 mph 6 mph 88 % 0 in
04:32 63.1 °F 59.9 °F 30.2 in SW 1 mph 6 mph 89 % 0 in
04:37 63 °F 59.7 °F 30.2 in WSW 2 mph 6 mph 89 % 0 in
04:42 63 °F 59.7 °F 30.2 in SW 2 mph 6 mph 89 % 0 in
04:47 63 °F 59.9 °F 30.2 in SSW 1 mph 4 mph 90 % 0 in
04:52 62.8 °F 59.7 °F 30.2 in Calm   4 mph 90 % 0 in
04:57 62.6 °F 59.9 °F 30.2 in Calm   4 mph 91 % 0 in
05:02 62.6 °F 59.9 °F 30.2 in Calm   3 mph 91 % 0 in
05:12 62.4 °F 59.7 °F 30.2 in Calm   1 mph 91 % 0 in
05:22 62.4 °F 59.7 °F 30.2 in Calm   1 mph 91 % 0 in
05:32 62.2 °F 59.9 °F 30.2 in Calm     92 % 0 in
05:37 62.2 °F 59.9 °F 30.2 in Calm     92 % 0 in
05:42 62.2 °F 59.9 °F 30.2 in Calm     92 % 0 in
05:47 62.2 °F 59.9 °F 30.2 in Calm     92 % 0 in
05:52 62.2 °F 59.9 °F 30.2 in WNW 2 mph   92 % 0 in
05:57 62.2 °F 60.3 °F 30.2 in Calm   3 mph 93 % 0 in
06:02 62.4 °F 60.4 °F 30.2 in West 3 mph 3 mph 93 % 0 in
06:12 62.2 °F 60.3 °F 30.2 in WSW 1 mph 4 mph 93 % 0 in
06:17 62.2 °F 60.3 °F 30.2 in WSW 3 mph 4 mph 93 % 0 in
06:22 62.2 °F 60.3 °F 30.2 in West 2 mph 4 mph 93 % 0 in
06:32 62.1 °F 60.3 °F 30.2 in West 1 mph 5 mph 94 % 0 in
06:37 62.1 °F 60.3 °F 30.2 in SW 1 mph 5 mph 94 % 0 in
06:42 61.9 °F 60.1 °F 30.2 in WSW 1 mph 5 mph 94 % 0 in
06:47 61.9 °F 60.1 °F 30.2 in Calm   5 mph 94 % 0 in
06:57 61.9 °F 60.4 °F 30.2 in WSW 1 mph 3 mph 95 % 0 in
07:07 61.7 °F 60.3 °F 30.2 in Calm   3 mph 95 % 0 in
07:12 61.7 °F 60.3 °F 30.2 in WNW 1 mph 2 mph 95 % 0 in
07:17 61.7 °F 60.3 °F 30.2 in WNW 1 mph 2 mph 95 % 0 in
07:22 61.9 °F 60.4 °F 30.2 in Calm   2 mph 95 % 0 in
07:27 61.7 °F 60.3 °F 30.2 in Calm   2 mph 95 % 0.02 in
07:32 61.7 °F 60.3 °F 30.2 in Calm   1 mph 95 % 0.02 in
07:42 61.7 °F 60.3 °F 30.2 in Calm   1 mph 95 % 0.02 in
07:47 61.7 °F 60.3 °F 30.2 in WNW 1 mph 2 mph 95 % 0.02 in
07:52 61.7 °F 60.3 °F 30.2 in NNW 2 mph 2 mph 95 % 0.02 in
07:57 61.7 °F 60.3 °F 30.2 in NW 1 mph 2 mph 95 % 0.02 in
08:02 61.9 °F 60.8 °F 30.2 in NNW 1 mph 4 mph 96 % 0.02 in
08:12 61.7 °F 60.6 °F 30.2 in Calm   4 mph 96 % 0.02 in
08:17 61.7 °F 60.6 °F 30.2 in Calm   4 mph 96 % 0.02 in
08:22 61.5 °F 60.1 °F 30.2 in North 2 mph 4 mph 95 % 0.02 in
08:32 61.3 °F 59.9 °F 30.2 in WNW 1 mph 7 mph 95 % 0.01 in
08:37 61.2 °F 59.7 °F 30.2 in North 5 mph 7 mph 95 % 0.01 in
08:42 61 °F 59.5 °F 30.2 in NNE 3 mph 5 mph 95 % 0.01 in
08:47 60.8 °F 59.4 °F 30.2 in NNW 3 mph 6 mph 95 % 0 in
08:52 60.6 °F 59.2 °F 30.2 in NW 1 mph 6 mph 95 % 0 in
08:57 60.6 °F 59.2 °F 30.2 in NNW 3 mph 6 mph 95 % 0 in
09:02 60.4 °F 58.6 °F 30.2 in NW 1 mph 6 mph 94 % 0 in
09:12 60.4 °F 58.6 °F 30.2 in Calm   5 mph 94 % 0 in
09:17 60.4 °F 58.6 °F 30.2 in NW 1 mph 4 mph 94 % 0 in
09:22 60.4 °F 58.6 °F 30.2 in WNW 1 mph 4 mph 94 % 0 in
09:27 60.3 °F 58.5 °F 30.2 in West 2 mph 4 mph 94 % 0 in
09:32 60.3 °F 58.5 °F 30.2 in North 1 mph 4 mph 94 % 0 in
09:37 60.4 °F 58.6 °F 30.2 in NNW 1 mph 4 mph 94 % 0 in
09:42 60.4 °F 58.6 °F 30.2 in NNE 3 mph 4 mph 94 % 0 in
09:47 60.4 °F 58.6 °F 30.2 in NNW 3 mph 4 mph 94 % 0 in
09:52 60.8 °F 59 °F 30.2 in NNW 1 mph 5 mph 94 % 0 in
09:57 61 °F 59.2 °F 30.2 in North 3 mph 5 mph 94 % 0 in
10:02 61.3 °F 59.5 °F 30.2 in NE 2 mph 5 mph 94 % 0 in
10:07 61.5 °F 59.5 °F 30.2 in Calm   5 mph 93 % 0 in
10:12 61.3 °F 59 °F 30.2 in North 2 mph 5 mph 92 % 0 in
10:17 61.5 °F 59.5 °F 30.2 in WNW 1 mph 5 mph 93 % 0 in
10:22 61.7 °F 59.4 °F 30.2 in NW 2 mph 5 mph 92 % 0 in
10:32 61.7 °F 59 °F 30.2 in WNW 5 mph 5 mph 91 % 0 in
10:42 61.9 °F 59.5 °F 30.2 in NW 2 mph 6 mph 92 % 0 in
10:52 61.7 °F 59 °F 30.2 in NNW 5 mph 6 mph 91 % 0 in
11:02 61.9 °F 59.5 °F 30.2 in NE 3 mph 8 mph 92 % 0 in
11:12 61.9 °F 59.2 °F 30.2 in North 6 mph 7 mph 91 % 0 in
11:17 61.9 °F 59.2 °F 30.2 in NNE 3 mph 7 mph 91 % 0 in
11:27 62.2 °F 58.6 °F 30.2 in NW 2 mph 7 mph 88 % 0 in
11:32 62.4 °F 58.5 °F 30.2 in NE 4 mph 7 mph 87 % 0 in
11:42 62.8 °F 59.2 °F 30.2 in ENE 2 mph 8 mph 88 % 0 in
11:47 63 °F 59.4 °F 30.2 in North 4 mph 8 mph 88 % 0 in
11:52 63.3 °F 59.7 °F 30.2 in Calm   7 mph 88 % 0 in
11:57 63.9 °F 59.5 °F 30.2 in NNE 3 mph 7 mph 86 % 0 in
12:02 63.7 °F 58.8 °F 30.2 in North 1 mph 7 mph 84 % 0 in
12:12 64.4 °F 59.2 °F 30.2 in NE 2 mph 6 mph 83 % 0 in
12:17 65.1 °F 59.5 °F 30.2 in NNE 3 mph 8 mph 82 % 0 in
12:22 65.7 °F 58.6 °F 30.2 in NE 4 mph 8 mph 78 % 0 in
12:27 66 °F 59 °F 30.2 in NNE 4 mph 8 mph 78 % 0 in
12:32 66.7 °F 59.4 °F 30.2 in East 1 mph 8 mph 77 % 0 in
12:37 66.7 °F 59 °F 30.2 in Calm   8 mph 76 % 0 in
12:42 67.3 °F 59 °F 30.2 in NW 4 mph 6 mph 75 % 0 in
12:47 67.5 °F 59.5 °F 30.2 in North 2 mph 6 mph 76 % 0 in
12:52 68.2 °F 59.5 °F 30.2 in WNW 1 mph 6 mph 74 % 0 in
12:57 68.7 °F 59.4 °F 30.2 in NNW 5 mph 6 mph 72 % 0 in
13:02 68.2 °F 58.8 °F 30.2 in WNW 1 mph 6 mph 72 % 0 in
13:07 68.2 °F 58.8 °F 30.2 in NE 5 mph 6 mph 72 % 0 in
13:12 68.4 °F 59 °F 30.2 in NW 3 mph 7 mph 72 % 0 in
13:17 69.3 °F 59.5 °F 30.2 in NNE 1 mph 9 mph 71 % 0 in
13:27 69.1 °F 59.4 °F 30.2 in NW 1 mph 9 mph 71 % 0 in
13:32 69.4 °F 59.2 °F 30.2 in North 6 mph 9 mph 70 % 0 in
13:42 70 °F 59.7 °F 30.2 in North 3 mph 8 mph 70 % 0 in
13:47 70.2 °F 59.5 °F 30.2 in WSW 1 mph 6 mph 69 % 0 in
13:52 70 °F 58.5 °F 30.2 in NW 2 mph 6 mph 67 % 0 in
13:57 69.6 °F 57.4 °F 30.2 in Calm   6 mph 65 % 0 in
14:02 70.3 °F 58.1 °F 30.2 in NE 2 mph 6 mph 65 % 0 in
14:07 70.9 °F 59 °F 30.2 in WNW 3 mph 6 mph 66 % 0 in
14:12 70.2 °F 58.3 °F 30.2 in NNW 2 mph 6 mph 66 % 0 in
14:17 70 °F 58.1 °F 30.2 in Calm   6 mph 66 % 0 in
14:22 70.2 °F 57.9 °F 30.2 in NW 2 mph 7 mph 65 % 0 in
14:32 70 °F 58.1 °F 30.2 in ENE 4 mph 7 mph 66 % 0 in
14:37 69.8 °F 57.9 °F 30.2 in NNE 5 mph 7 mph 66 % 0 in
14:42 70.2 °F 58.3 °F 30.2 in NNE 2 mph 8 mph 66 % 0 in
14:52 70.9 °F 58.1 °F 30.2 in West 1 mph 7 mph 64 % 0 in
14:57 70.9 °F 58.1 °F 30.2 in NW 2 mph 7 mph 64 % 0 in
15:02 71.2 °F 58.5 °F 30.2 in Calm   7 mph 64 % 0 in
15:07 71.4 °F 58.1 °F 30.2 in ENE 2 mph 5 mph 63 % 0 in
15:12 71.4 °F 58.1 °F 30.2 in NE 1 mph 9 mph 63 % 0 in
15:22 70.5 °F 57.7 °F 30.2 in West 2 mph 10 mph 64 % 0 in
15:32 70.7 °F 57.9 °F 30.2 in ENE 3 mph 8 mph 64 % 0 in
15:37 70.7 °F 57.6 °F 30.2 in ENE 2 mph 5 mph 63 % 0 in
15:42 70.9 °F 58.5 °F 30.2 in NE 2 mph 4 mph 65 % 0 in
15:47 71.2 °F 57.6 °F 30.2 in NE 7 mph 7 mph 62 % 0 in
15:52 71.1 °F 58.3 °F 30.2 in Calm   7 mph 64 % 0 in
15:57 71.1 °F 57.4 °F 30.2 in NW 1 mph 7 mph 62 % 0 in
16:02 71.4 °F 57.7 °F 30.2 in SW 1 mph 7 mph 62 % 0 in
16:07 72 °F 57.4 °F 30.2 in Calm   4 mph 60 % 0 in
16:12 72.3 °F 57.7 °F 30.2 in North 2 mph 3 mph 60 % 0 in
16:17 72.3 °F 59.5 °F 30.2 in NNW 2 mph 7 mph 64 % 0 in
16:22 72 °F 59.2 °F 30.2 in NW 3 mph 7 mph 64 % 0 in
16:27 71.8 °F 59 °F 30.2 in NW 2 mph 7 mph 64 % 0 in
16:32 71.4 °F 58.6 °F 30.2 in West 2 mph 4 mph 64 % 0 in
16:37 71.6 °F 57.9 °F 30.2 in West 2 mph 4 mph 62 % 0 in
16:42 72.1 °F 57.9 °F 30.2 in NW 2 mph 4 mph 61 % 0 in
16:52 72.1 °F 57.6 °F 30.2 in Calm   5 mph 60 % 0 in
16:57 72.7 °F 57 °F 30.2 in Calm   5 mph 58 % 0 in
17:02 73 °F 56.8 °F 30.2 in Calm   5 mph 57 % 0 in
17:07 72.9 °F 57.2 °F 30.2 in NW 3 mph 3 mph 58 % 0 in
17:12 72.5 °F 57.4 °F 30.2 in Calm   7 mph 59 % 0 in
17:17 72.1 °F 57.6 °F 30.2 in NW 4 mph 7 mph 60 % 0 in
17:22 72.3 °F 57.2 °F 30.2 in Calm   7 mph 59 % 0 in
17:27 72.9 °F 57.2 °F 30.2 in Calm   6 mph 58 % 0 in
17:32 72.3 °F 57.2 °F 30.2 in North 2 mph 6 mph 59 % 0 in
17:37 72.3 °F 57.2 °F 30.2 in North 1 mph 6 mph 59 % 0 in
17:42 72.9 °F 57.7 °F 30.2 in NNW 3 mph 6 mph 59 % 0 in
17:52 72.7 °F 57 °F 30.2 in WNW 2 mph 7 mph 58 % 0 in
17:57 73.2 °F 57.6 °F 30.2 in NW 2 mph 7 mph 58 % 0 in
18:02 73.4 °F 56.7 °F 30.2 in West 3 mph 7 mph 56 % 0 in
18:07 73.2 °F 56.7 °F 30.2 in SW 1 mph 7 mph 56 % 0 in
18:12 73.8 °F 57.6 °F 30.2 in NW 3 mph 7 mph 57 % 0 in
18:17 74.1 °F 57.9 °F 30.2 in NNW 1 mph 7 mph 57 % 0 in
18:22 73.9 °F 57.2 °F 30.2 in NNE 4 mph 6 mph 56 % 0 in
18:27 73.6 °F 58.3 °F 30.2 in NE 4 mph 6 mph 59 % 0 in
18:32 72.9 °F 58.1 °F 30.2 in NE 5 mph 5 mph 60 % 0 in
18:42 72.9 °F 58.1 °F 30.2 in NNE 2 mph 8 mph 60 % 0 in
18:52 72.3 °F 58.1 °F 30.2 in ENE 5 mph 7 mph 61 % 0 in
18:57 72.1 °F 58.5 °F 30.2 in ENE 4 mph 7 mph 62 % 0 in
19:02 72.1 °F 58.5 °F 30.2 in ENE 3 mph 7 mph 62 % 0 in
19:12 72.3 °F 58.1 °F 30.2 in ENE 3 mph 6 mph 61 % 0 in
19:17 71.8 °F 58.1 °F 30.2 in NNE 5 mph 6 mph 62 % 0 in
19:22 71.4 °F 57.7 °F 30.2 in NE 4 mph 6 mph 62 % 0 in
19:27 71.2 °F 57.9 °F 30.2 in NNE 5 mph 8 mph 63 % 0 in
19:32 71.4 °F 57.7 °F 30.2 in NNE 3 mph 8 mph 62 % 0 in
19:42 71.6 °F 58.3 °F 30.2 in NE 4 mph 7 mph 63 % 0 in
19:47 71.4 °F 57.7 °F 30.2 in NNE 5 mph 8 mph 62 % 0 in
19:52 71.2 °F 57.6 °F 30.2 in North 6 mph 8 mph 62 % 0 in
20:02 71.1 °F 58.3 °F 30.2 in ENE 2 mph 9 mph 64 % 0 in
20:12 70.3 °F 57.6 °F 30.2 in NE 4 mph 10 mph 64 % 0 in
20:17 70.2 °F 57.9 °F 30.2 in NE 6 mph 10 mph 65 % 0 in
20:22 69.8 °F 57.6 °F 30.2 in NE 4 mph 8 mph 65 % 0 in
20:32 69.3 °F 57.9 °F 30.2 in NE 4 mph 8 mph 67 % 0 in
20:37 69.1 °F 57.7 °F 30.2 in NE 3 mph 8 mph 67 % 0 in
20:42 68.7 °F 57.7 °F 30.2 in NE 4 mph 6 mph 68 % 0 in
20:47 68.5 °F 57.9 °F 30.2 in NE 2 mph 6 mph 69 % 0 in
20:52 68.2 °F 58.1 °F 30.2 in NE 2 mph 6 mph 70 % 0 in
20:57 67.5 °F 57.7 °F 30.2 in NE 2 mph 6 mph 71 % 0 in
21:02 66.9 °F 57.6 °F 30.2 in NE 3 mph 4 mph 72 % 0 in
21:12 66.6 °F 58.1 °F 30.2 in NNE 1 mph 4 mph 74 % 0 in
21:17 66 °F 57.9 °F 30.2 in Calm   4 mph 75 % 0 in
21:22 65.7 °F 57.6 °F 30.2 in North 1 mph 3 mph 75 % 0 in
21:27 65.5 °F 57.7 °F 30.2 in Calm   2 mph 76 % 0 in
21:32 65.1 °F 57.7 °F 30.2 in NNW 1 mph 3 mph 77 % 0 in
21:37 64.8 °F 57.4 °F 30.2 in Calm   3 mph 77 % 0 in
21:42 64.6 °F 57.2 °F 30.2 in North 1 mph 3 mph 77 % 0 in
21:47 64.4 °F 57.4 °F 30.2 in NNW 2 mph 3 mph 78 % 0 in
21:52 64.2 °F 57.2 °F 30.2 in NNE 1 mph 4 mph 78 % 0 in
21:57 64 °F 57 °F 30.2 in Calm   4 mph 78 % 0 in
22:02 63.7 °F 57 °F 30.2 in Calm   3 mph 79 % 0 in
22:07 63.1 °F 56.8 °F 30.2 in North 1 mph 2 mph 80 % 0 in
22:12 63 °F 56.7 °F 30.2 in Calm   2 mph 80 % 0 in
22:17 62.8 °F 56.8 °F 30.2 in Calm   2 mph 81 % 0 in
22:27 62.2 °F 56.7 °F 30.2 in Calm   2 mph 82 % 0 in
22:32 62.1 °F 56.5 °F 30.2 in NNE 1 mph 2 mph 82 % 0 in
22:37 62.1 °F 56.5 °F 30.2 in Calm   2 mph 82 % 0 in
22:42 61.9 °F 56.7 °F 30.2 in Calm   1 mph 83 % 0 in
22:52 61.3 °F 56.5 °F 30.2 in Calm   1 mph 84 % 0 in
22:57 61.2 °F 56.3 °F 30.2 in Calm   1 mph 84 % 0 in
23:02 61 °F 56.5 °F 30.2 in Calm   1 mph 85 % 0 in
23:07 60.6 °F 56.1 °F 30.2 in Calm   1 mph 85 % 0 in
23:12 60.4 °F 55.9 °F 30.2 in Calm   1 mph 85 % 0 in
23:17 60.4 °F 55.9 °F 30.2 in Calm   1 mph 85 % 0 in
23:22 60.3 °F 55.8 °F 30.2 in Calm   1 mph 85 % 0 in
23:32 60.3 °F 56.1 °F 30.2 in Calm   1 mph 86 % 0 in
23:37 60.3 °F 55.8 °F 30.2 in NNW 1 mph 1 mph 85 % 0 in
23:42 60.1 °F 55.6 °F 30.2 in NNW 1 mph 1 mph 85 % 0 in
23:47 59.9 °F 55.8 °F 30.2 in Calm   1 mph 86 % 0 in
23:52 59.9 °F 55.8 °F 30.2 in Calm   1 mph 86 % 0 in
23:57 59.9 °F 55.8 °F 30.2 in Calm   1 mph 86 % 0 in
Meteo18
Compliments of Weather Underground - 4 mb

Script developed by  Jim McMurry - jmcmurry@mwt.net Adapted for the template by  Wim van der Kuil - Leuven-Template.eu

You find our weather info also at:

European Weather Network

Weather Underground

Equipment we use:

Weather-station
Davis Vue

Weather-program
Meteohub

Weather-server
Raspberry PI 2 B+

Provider
1 and 1

Davis Vue

Meteohub

Raspberry PI 2 B+

1 and 1